ARIRANG-3 (KOMPSAT-3)

Last updated on Mon Jun 22 2026 00:02:51 GMT+0000 (Coordinated Universal Time)

1 38338U 12025B 26172.48069449 .00000291 00000+0 66986-4 0 9997 2 38338 98.1172 129.8665 0006785 98.6796 261.5175 14.62209168751978
UTC large
Height (km)
Speed (km/s)
/
Latitude / Longitude
Inclination (degrees)
Orbital Period (minutes)
Azimuth
Elevation
Range (km)
Doppler Factor

Next 0 passes for location: London (51.5072 / 0.1276)

No passes found over London.
ARIRANG-3 (KOMPSAT-3)